Location: Smoky Mountain Stargaze
(35.4252°N, 83.3329°W)
Time: 07:59:44
(UTC-04:00)

Amateur Radio Satellites - All Passes

Search period start: 24 October 2014 07:29
Search period end: 25 October 2014 07:29
Location: Smoky Mountain Stargaze, 35.4252°N, 83.3329°W

Satellite Date Start Highest point End Downlink Frequencies (MHz)
Time Altitude Azimuth
Uosat F 24 Oct 07:42:41 07:43:44 11° 298° (WNW) 07:44:47 435.120 FM
Hamsat 24 Oct 07:45:29 07:49:31 48° 285° (WNW) 07:53:34 145.90 MHz
JAS-2 24 Oct 07:52:05 07:59:31 50° 290° (WNW) 08:06:56 435.800 - 435.900 CW/SSB, 435.910 FM
SO-67 24 Oct 07:58:38 08:01:23 22° 96° (E) 08:04:08 435.3500 MHz FM
PANSAT 24 Oct 08:10:27 08:13:01 17° 164° (SSE) 08:15:35 not established
AO-7 24 Oct 08:15:51 08:20:02 15° 308° (NW) 08:24:15 29.400 - 29.500 MHz
STRAND 1 24 Oct 08:25:20 08:29:52 32° 263° (W) 08:34:27 ?
Saudisat 1A 24 Oct 08:37:38 08:41:59 71° 300° (WNW) 08:46:23 436.775 MHz
RS-15 24 Oct 09:28:11 09:39:05 59° 248° (WSW) 09:50:29 29.354 - 29.394 USB, Beacon 29.352 USB
SO-67 24 Oct 09:32:01 09:34:10 16° 290° (WNW) 09:36:18 435.3500 MHz FM
MaSat-1 24 Oct 09:43:02 09:43:53 11° 57° (ENE) 09:44:43 437.345 MHz
HO-68 24 Oct 09:48:23 09:54:49 34° 98° (E) 10:01:11 435.675 MHz FM
PANSAT 24 Oct 09:49:22 09:52:41 28° 177° (S) 09:55:59 not established
ZACube-1 24 Oct 10:47:03 10:48:59 13° 92° (E) 10:50:53 437.345 MHz
UKube-1 24 Oct 10:51:41 10:55:51 43° 100° (E) 10:59:59 145.840 MHz, 145.915 MHz
MaSat-1 24 Oct 11:18:13 11:19:22 13° 255° (WSW) 11:20:31 437.345 MHz
PANSAT 24 Oct 11:29:17 11:32:24 24° 189° (S) 11:35:31 not established
FUNcube-1 24 Oct 11:30:09 11:34:13 43° 99° (E) 11:38:10 145.950 - 145.970 MHz USB
Oscar 11 24 Oct 11:33:44 11:38:00 62° 285° (WNW) 11:42:14 145.825 FM, Beacon 2401.500 USB
HO-68 24 Oct 11:35:53 11:42:28 41° 293° (WNW) 11:49:03 435.675 MHz FM
ZACube-1 24 Oct 12:21:35 12:25:35 41° 287° (WNW) 12:29:30 437.345 MHz
SO-50 24 Oct 12:28:36 12:30:36 13° 107° (ESE) 12:32:38 436.795 FM
UKube-1 24 Oct 12:29:12 12:31:39 15° 294° (WNW) 12:34:05 145.840 MHz, 145.915 MHz
KITSAT 1 24 Oct 12:37:55 12:45:46 58° 112° (ESE) 12:53:38 435.175 FM
Sapphire 24 Oct 13:02:57 13:06:34 18° 50° (NE) 13:10:10 437.095 MHz 1200 baud AX-25 AFSK
Oscar 19 24 Oct 13:05:30 13:08:19 15° 64° (ENE) 13:11:08 437.125 CW, 437.150 USB
FUNcube-1 24 Oct 13:08:10 13:10:09 13° 294° (WNW) 13:12:08 145.950 - 145.970 MHz USB
ISS 24 Oct 13:08:52 13:12:07 59° 135° (SE) 13:15:25 145.800 FM
PANSAT 24 Oct 13:10:54 13:11:57 11° 201° (SSW) 13:13:01 not established
Oscar 10/S400 24 Oct 13:21:48 13:42:55 38° 153° (SSE) 14:01:16 145.825 - 145.975 CW/USB, Beacon 145.810 USB
PCSat 24 Oct 13:24:50 13:29:30 28° 55° (NE) 13:34:08 145.825 MHz
Oscar 16 24 Oct 13:48:48 13:53:37 41° 71° (ENE) 13:58:26 437.025 USB, Beacon 2401.1428
AO-Echo 24 Oct 13:49:29 13:52:54 19° 66° (ENE) 13:56:24 ?
SO-50 24 Oct 14:06:14 14:10:36 54° 303° (WNW) 14:15:07 436.795 FM
Uribyol 2 24 Oct 14:08:06 14:12:24 27° 68° (ENE) 14:16:42 436.500 FM
JAS-1B 24 Oct 14:09:26 14:15:21 54° 73° (ENE) 14:20:52 435.800 - 435.900 CW/SSB
ITAMSAT 1 24 Oct 14:13:54 14:18:17 28° 68° (ENE) 14:22:41 435.822 SSB
Gurwin Techsat 1B 24 Oct 14:31:29 14:35:26 22° 66° (ENE) 14:39:23 435.225 FM
KITSAT 1 24 Oct 14:34:35 14:41:32 31° 310° (NW) 14:48:31 435.175 FM
Oscar 19 24 Oct 14:42:02 14:47:07 59° 259° (W) 14:52:12 437.125 CW, 437.150 USB
TMSAT-1 24 Oct 14:43:11 14:47:00 20° 66° (ENE) 14:50:48 436.925 FM
Sapphire 24 Oct 14:45:03 14:50:25 63° 247° (WSW) 14:55:45 437.095 MHz 1200 baud AX-25 AFSK
ISS 24 Oct 14:46:54 14:49:04 16° 331° (NNW) 14:51:16 145.800 FM
AO-27 24 Oct 14:58:26 15:03:37 80° 75° (ENE) 15:08:52 436.795 MHz FM
PCSat 24 Oct 15:08:02 15:12:55 35° 251° (WSW) 15:17:46 145.825 MHz
AO-7 24 Oct 15:25:55 15:31:54 23° 57° (ENE) 15:37:52 29.400 - 29.500 MHz
AO-Echo 24 Oct 15:26:46 15:31:18 40° 262° (W) 15:36:01 ?
Oscar 16 24 Oct 15:29:22 15:33:05 20° 266° (W) 15:36:48 437.025 USB, Beacon 2401.1428
UOSAT-12 24 Oct 15:32:03 15:36:39 82° 300° (WNW) 15:41:23 437.025 FM, 437.400 FM
Uribyol 2 24 Oct 15:47:04 15:51:42 32° 263° (W) 15:56:22 436.500 FM
ITAMSAT 1 24 Oct 15:53:07 15:57:38 30° 263° (W) 16:02:13 435.822 SSB
JAS-1B 24 Oct 16:02:43 16:06:18 16° 266° (W) 16:09:45 435.800 - 435.900 CW/SSB
Gurwin Techsat 1B 24 Oct 16:10:05 16:15:04 41° 261° (W) 16:20:05 435.225 FM
TMSAT-1 24 Oct 16:21:31 16:26:33 44° 261° (W) 16:31:37 436.925 FM
Saudisat 1A 24 Oct 17:07:17 17:11:24 37° 55° (NE) 17:15:29 436.775 MHz
Uosat F 24 Oct 17:10:44 17:15:45 80° 76° (ENE) 17:20:48 435.120 FM
AO-7 24 Oct 17:15:34 17:23:50 75° 254° (WSW) 17:32:08 29.400 - 29.500 MHz
UOSAT-12 24 Oct 17:16:39 17:17:33 11° 318° (NW) 17:18:27 437.025 FM, 437.400 FM
JAS-2 24 Oct 18:00:43 18:06:21 56° 71° (ENE) 18:12:46 435.800 - 435.900 CW/SSB, 435.910 FM
Hamsat 24 Oct 18:35:18 18:39:31 78° 77° (ENE) 18:43:43 145.90 MHz
Saudisat 1A 24 Oct 18:47:34 18:50:40 19° 250° (WSW) 18:53:45 436.775 MHz
OPAL 24 Oct 18:54:20 18:59:19 86° 105° (ESE) 19:04:15 ?
STRAND 1 24 Oct 19:03:05 19:03:51 10° 91° (E) 19:04:36 ?
AO-7 24 Oct 19:15:56 19:17:44 11° 270° (W) 19:19:32 29.400 - 29.500 MHz
ISS 24 Oct 19:40:24 19:43:02 21° 32° (NNE) 19:45:40 145.800 FM
JAS-2 24 Oct 19:48:04 19:51:59 18° 271° (W) 19:56:12 435.800 - 435.900 CW/SSB, 435.910 FM
SO-67 24 Oct 20:00:10 20:03:35 82° 259° (WSW) 20:07:02 435.3500 MHz FM
HO-68 24 Oct 20:15:26 20:20:13 20° 59° (ENE) 20:25:00 435.675 MHz FM
KITSAT 1 24 Oct 20:35:37 20:40:56 18° 41° (NE) 20:46:12 435.175 FM
STRAND 1 24 Oct 20:38:21 20:43:30 75° 285° (WNW) 20:48:37 ?
AO-40 24 Oct 21:11:13 23:18:21 36° 212° (SSW) 04:00:14 Beacon 2401.320
ISS 24 Oct 21:16:42 21:19:48 36° 227° (SW) 21:22:54 145.800 FM
RS-15 24 Oct 21:37:35 21:46:37 30° 105° (ESE) 21:55:29 29.354 - 29.394 USB, Beacon 29.352 USB
UKube-1 24 Oct 21:44:33 21:48:08 26° 70° (ENE) 21:51:44 145.840 MHz, 145.915 MHz
HO-68 24 Oct 22:00:00 22:07:08 74° 256° (WSW) 22:14:20 435.675 MHz FM
FUNcube-1 24 Oct 22:23:31 22:27:21 27° 71° (ENE) 22:31:08 145.950 - 145.970 MHz USB
Oscar 11 24 Oct 22:25:23 22:29:41 68° 76° (ENE) 22:33:59 145.825 FM, Beacon 2401.500 USB
KITSAT 1 24 Oct 22:29:30 22:37:37 80° 62° (ENE) 22:45:41 435.175 FM
SO-50 24 Oct 22:40:26 22:45:14 58° 58° (ENE) 22:50:02 436.795 FM
ZACube-1 24 Oct 23:14:05 23:18:41 81° 258° (WSW) 23:23:15 437.345 MHz
MaSat-1 24 Oct 23:17:01 23:18:47 12° 105° (ESE) 23:20:30 437.345 MHz
UKube-1 24 Oct 23:20:46 23:24:14 23° 264° (W) 23:27:43 145.840 MHz, 145.915 MHz
RS-15 24 Oct 23:47:09 23:58:04 66° 303° (WNW) 00:08:57 29.354 - 29.394 USB, Beacon 29.352 USB
FUNcube-1 24 Oct 23:59:50 00:03:36 25° 264° (W) 00:07:22 145.950 - 145.970 MHz USB
UOSAT-12 25 Oct 00:04:48 00:09:11 37° 55° (NE) 00:13:28 437.025 FM, 437.400 FM
SO-50 25 Oct 00:22:43 00:25:18 14° 252° (WSW) 00:27:52 436.795 FM
KITSAT 1 25 Oct 00:27:02 00:32:02 18° 258° (WSW) 00:37:01 435.175 FM
MaSat-1 25 Oct 00:50:06 00:54:08 44° 295° (WNW) 00:57:50 437.345 MHz
UOSAT-12 25 Oct 01:45:33 01:49:03 21° 250° (WSW) 01:52:30 437.025 FM, 437.400 FM
JAS-1B 25 Oct 01:55:50 02:00:48 20° 96° (E) 02:06:17 435.800 - 435.900 CW/SSB
Oscar 16 25 Oct 02:04:31 02:08:01 18° 94° (E) 02:11:31 437.025 USB, Beacon 2401.1428
RS-15 25 Oct 02:05:47 02:13:05 19° 330° (NNW) 02:20:26 29.354 - 29.394 USB, Beacon 29.352 USB
Uribyol 2 25 Oct 02:26:04 02:27:34 11° 91° (E) 02:29:03 436.500 FM
ITAMSAT 1 25 Oct 02:31:36 02:33:40 12° 92° (E) 02:35:43 435.822 SSB
Oscar 10/S400 25 Oct 02:33:03 03:31:26 18° 249° (WSW) 05:28:00 145.825 - 145.975 CW/USB, Beacon 145.810 USB
Oscar 19 25 Oct 02:56:41 03:01:46 63° 101° (ESE) 03:06:49 437.125 CW, 437.150 USB
AO-27 25 Oct 03:14:56 03:19:45 37° 98° (E) 03:24:31 436.795 MHz FM
AO-Echo 25 Oct 03:36:25 03:41:46 83° 103° (ESE) 03:47:04 ?
Sapphire 25 Oct 03:41:27 03:45:52 26° 107° (ESE) 03:50:18 437.095 MHz 1200 baud AX-25 AFSK
Oscar 16 25 Oct 03:42:42 03:47:32 44° 288° (WNW) 03:52:21 437.025 USB, Beacon 2401.1428
JAS-1B 25 Oct 03:44:45 03:51:31 69° 286° (WNW) 03:59:38 435.800 - 435.900 CW/SSB
Uribyol 2 25 Oct 04:02:17 04:07:29 71° 285° (WNW) 04:12:37 436.500 FM
PCSat 25 Oct 04:03:06 04:08:14 47° 111° (ESE) 04:13:24 145.825 MHz
ITAMSAT 1 25 Oct 04:08:22 04:13:33 66° 286° (WNW) 04:18:42 435.822 SSB
RS-15 25 Oct 04:28:02 04:32:08 12° 9° (N) 04:36:15 29.354 - 29.394 USB, Beacon 29.352 USB
Gurwin Techsat 1B 25 Oct 04:29:03 04:34:23 81° 284° (WNW) 04:39:41 435.225 FM
OPAL 25 Oct 04:31:07 04:33:04 12° 61° (ENE) 04:35:00 ?
Oscar 19 25 Oct 04:38:02 04:40:32 14° 296° (WNW) 04:43:02 437.125 CW, 437.150 USB
TMSAT-1 25 Oct 04:40:10 04:45:30 86° 284° (WNW) 04:50:48 436.925 FM
AO-27 25 Oct 04:54:55 04:59:00 24° 293° (WNW) 05:03:05 436.795 MHz FM
JAS-2 25 Oct 05:16:55 05:18:49 11° 86° (E) 05:20:41 435.800 - 435.900 CW/SSB, 435.910 FM
AO-Echo 25 Oct 05:18:06 05:19:46 11° 298° (WNW) 05:21:25 ?
AO-7 25 Oct 05:20:45 05:28:41 46° 101° (E) 05:36:34 29.400 - 29.500 MHz
Uosat F 25 Oct 05:21:58 05:26:27 31° 97° (E) 05:30:53 435.120 FM
Sapphire 25 Oct 05:24:07 05:29:04 36° 303° (WNW) 05:34:04 437.095 MHz 1200 baud AX-25 AFSK
PCSat 25 Oct 05:47:40 05:51:51 22° 308° (NW) 05:56:04 145.825 MHz
OPAL 25 Oct 06:06:08 06:11:17 76° 255° (WSW) 06:16:25 ?
STRAND 1 25 Oct 06:15:38 06:17:43 13° 63° (ENE) 06:19:49 ?
Hamsat 25 Oct 06:25:02 06:27:47 17° 94° (E) 06:30:32 145.90 MHz
RS-15 25 Oct 06:40:10 06:49:48 32° 43° (NE) 06:59:41 29.354 - 29.394 USB, Beacon 29.352 USB
JAS-2 25 Oct 06:56:58 07:04:49 73° 102° (ESE) 07:12:32 435.800 - 435.900 CW/SSB, 435.910 FM
Uosat F 25 Oct 07:00:56 07:05:03 26° 292° (WNW) 07:09:10 435.120 FM
Saudisat 1A 25 Oct 07:11:46 07:14:53 19° 110° (ESE) 07:18:00 436.775 MHz
AO-7 25 Oct 07:13:51 07:21:11 36° 298° (WNW) 07:28:32 29.400 - 29.500 MHz
